Location: Newark
(40.4667°N, 5.6000°W)
Time: 14:27:33
(UTC+00:00)

Tiros 1 despin weight - Visible Passes

Search period start: 12 November 2019 00:00
Search period end: 22 November 2019 00:00
Orbit: 594 x 642 km, 48.2° (Epoch: 11 November)

Date Brightness Start Highest point End Pass type
(mag) Time Alt. Az. Time Alt. Az. Time Alt. Az.
12 Nov ? 19:04:54 10° WNW 19:08:54 30° N 19:09:00 30° N visible
13 Nov ? 17:39:21 10° WNW 17:43:26 34° N 17:47:35 10° NE visible
13 Nov ? 19:21:42 10° NW 19:24:49 30° NNW 19:24:49 30° NNW visible
14 Nov ? 17:56:22 10° WNW 18:00:20 30° N 18:03:37 14° NE visible
14 Nov ? 19:38:19 10° NW 19:40:40 27° NW 19:40:40 27° NW visible
15 Nov ? 18:13:14 10° WNW 18:17:14 31° N 18:19:29 20° NE visible
15 Nov ? 19:54:53 10° WNW 19:56:33 22° NW 19:56:33 22° NW visible
16 Nov ? 18:29:57 10° NW 18:34:07 36° NNE 18:35:25 30° NE visible
16 Nov ? 20:11:27 10° WNW 20:12:29 17° WNW 20:12:29 17° WNW visible
17 Nov ? 18:46:32 10° NW 18:50:54 49° NNE 18:51:25 46° NE visible
17 Nov ? 20:28:09 10° WNW 20:28:30 12° WNW 20:28:30 12° WNW visible
18 Nov ? 19:03:05 10° WNW 19:07:32 75° NNE 19:07:32 75° NNE visible
19 Nov ? 17:38:10 10° NW 17:42:24 40° NNE 17:46:40 10° E visible
19 Nov ? 19:19:41 10° WNW 19:23:45 60° WSW 19:23:45 60° WSW visible
20 Nov ? 17:54:44 10° NW 17:59:09 58° NNE 18:03:04 13° ESE visible
20 Nov ? 19:36:30 10° WNW 19:40:10 33° SW 19:40:10 33° SW visible
21 Nov ? 18:11:18 10° WNW 18:15:47 88° SSW 18:19:40 14° ESE visible
21 Nov ? 19:53:51 10° W 19:56:47 18° SW 19:56:47 18° SW visible
